Location: Cerezo de Arriba
(41.2389°N, 3.5585°W)
Time: 03:25:13
(UTC+00:00)

ISS - Pass Details

Date: 19 May 2025
Orbit: 415 x 417 km, 51.6° (Epoch: 24 June)

Event Time Altitude Azimuth Distance (km) Brightness Sun altitude
Rises 21:45:18 0° 310° (NW) 2,361 1.5 -20.1°
Reaches altitude 10° 21:47:42 10° 326° (NW) 1,495 0.2 -20.4°
Maximum altitude 21:50:25 23° 20° (NNE) 950 -1.6 -20.7°
Enters shadow 21:51:34 19° 50° (NE) 1,065 -1.7 -20.8°
